2025-197B

Last updated on Mon Oct 06 2025 00:02:05 GMT+0000 (Coordinated Universal Time)

1 65489U 25197B 25278.53095546 .00008507 00000+0 38424-3 0 9990 2 65489 97.4104 103.8595 0014554 175.2951 184.8424 15.21116415 4562
UTC large
Height (km)
Speed (km/s)
/
Latitude / Longitude
Inclination (degrees)
Orbital Period (minutes)
Azimuth
Elevation
Range (km)
Doppler Factor

Next 0 passes for location: London (51.5072 / 0.1276)

Sorry there are no passes over London.
2025-197B